EZY34CT LDDU-EGKK

Flight info

Callsign EZY34CT
Flight time N/A
Altitude 38000
Route AMUGO DCT UVODI DCT SAL DCT ROTAR DCT BORMI DCT RESIA DCT ELMUR DCT RIPUS DCT DITON DCT HOC DCT LUL DCT RLP DCT ROTSI DCT KOTUN DCT NINAL DCT KESAX DCT KUNAV
Aircraft A320/M-SDE2E3FGHIJ1RWXYZ/LB1

Departure

Time 2026-05-05 19:14
Airport Dubrovnik Ruđer Bošković Airport (LDDU)

Arrival

Time N/A
Airport London Gatwick Airport (EGKK)
Time Latitude Longitude Altitude Speed Heading
2026-05-05 18:40 42.55952 18.26654 534 ft 0 kts 208°
2026-05-05 19:06 42.55968 18.26666 534 ft 4 kts 208°
2026-05-05 19:06 42.55988 18.26687 534 ft 4 kts 243°
2026-05-05 19:07 42.55991 18.26717 534 ft 3 kts 296°
2026-05-05 19:07 42.55990 18.26721 534 ft 0 kts 298°
2026-05-05 19:09 42.55992 18.26715 534 ft 3 kts 298°
2026-05-05 19:09 42.56011 18.26669 534 ft 6 kts 298°
2026-05-05 19:10 42.56044 18.26587 534 ft 11 kts 298°
2026-05-05 19:10 42.56080 18.26497 534 ft 10 kts 298°
2026-05-05 19:10 42.56113 18.26415 534 ft 11 kts 298°
2026-05-05 19:10 42.56153 18.26312 534 ft 14 kts 298°
2026-05-05 19:11 42.56208 18.26171 534 ft 18 kts 298°
2026-05-05 19:11 42.56266 18.26025 534 ft 17 kts 297°
2026-05-05 19:11 42.56319 18.25892 534 ft 15 kts 298°
2026-05-05 19:11 42.56368 18.25770 534 ft 15 kts 298°
2026-05-05 19:12 42.56414 18.25654 534 ft 13 kts 298°
2026-05-05 19:12 42.56456 18.25550 534 ft 10 kts 298°
2026-05-05 19:12 42.56503 18.25540 534 ft 7 kts 40°
2026-05-05 19:12 42.56531 18.25602 534 ft 8 kts 60°
2026-05-05 19:13 42.56561 18.25674 535 ft 9 kts 60°
2026-05-05 19:13 42.56557 18.25765 535 ft 15 kts 118°
2026-05-05 19:13 42.56408 18.26140 534 ft 82 kts 118°
2026-05-05 19:13 42.56036 18.27080 534 ft 142 kts 118°
2026-05-05 19:14 42.55542 18.28348 988 ft 153 kts 118°
2026-05-05 19:14 42.55037 18.29634 1684 ft 158 kts 120°
2026-05-05 19:14 42.54486 18.31029 2071 ft 179 kts 119°
2026-05-05 19:14 42.53855 18.32604 2413 ft 202 kts 125°
2026-05-05 19:15 42.52763 18.33792 3006 ft 207 kts 167°
2026-05-05 19:15 42.51349 18.33608 3767 ft 212 kts 208°
2026-05-05 19:15 42.50223 18.32300 4633 ft 214 kts 222°
2026-05-05 19:15 42.48985 18.31218 5498 ft 214 kts 200°
2026-05-05 19:16 42.47568 18.30588 6343 ft 216 kts 196°
2026-05-05 19:16 42.46113 18.30064 7146 ft 218 kts 195°
2026-05-05 19:16 42.44646 18.29580 7876 ft 222 kts 195°
2026-05-05 19:16 42.43103 18.29087 8622 ft 228 kts 195°
2026-05-05 19:17 42.41560 18.28351 9060 ft 246 kts 216°
2026-05-05 19:17 42.40393 18.26617 9422 ft 265 kts 246°
2026-05-05 19:17 42.40095 18.24143 10054 ft 274 kts 278°
2026-05-05 19:17 42.40582 18.21559 10412 ft 295 kts 286°
2026-05-05 19:18 42.41195 18.18812 10862 ft 312 kts 286°
2026-05-05 19:18 42.41843 18.15957 11661 ft 315 kts 286°
2026-05-05 19:18 42.42479 18.13145 12493 ft 317 kts 287°
2026-05-05 19:18 42.43135 18.10234 13318 ft 321 kts 286°
2026-05-05 19:19 42.43781 18.07328 14102 ft 324 kts 286°
2026-05-05 19:19 42.44427 18.04390 14812 ft 327 kts 286°
2026-05-05 19:19 42.45075 18.01417 15494 ft 331 kts 286°
2026-05-05 19:19 42.45729 17.98414 16169 ft 334 kts 286°
2026-05-05 19:20 42.46390 17.95374 16832 ft 338 kts 286°
2026-05-05 19:20 42.47061 17.92300 17494 ft 342 kts 286°
2026-05-05 19:20 42.47731 17.89236 18151 ft 345 kts 286°
2026-05-05 19:20 42.48417 17.86096 18742 ft 349 kts 286°
2026-05-05 19:21 42.49106 17.82931 19332 ft 352 kts 286°
2026-05-05 19:21 42.49797 17.79741 19933 ft 354 kts 286°
2026-05-05 19:21 42.50494 17.76525 20542 ft 357 kts 286°
2026-05-05 19:21 42.51195 17.73292 21146 ft 359 kts 286°
2026-05-05 19:22 42.51903 17.70027 21748 ft 362 kts 286°
2026-05-05 19:22 42.52612 17.66745 22339 ft 364 kts 286°
2026-05-05 19:22 42.53327 17.63437 22929 ft 367 kts 286°
2026-05-05 19:22 42.54086 17.60125 23511 ft 370 kts 291°
2026-05-05 19:23 42.55231 17.56989 24010 ft 373 kts 301°
2026-05-05 19:23 42.56757 17.54122 24501 ft 376 kts 306°
2026-05-05 19:23 42.58332 17.51281 24993 ft 377 kts 306°
2026-05-05 19:23 42.59914 17.48424 25487 ft 379 kts 305°
2026-05-05 19:24 42.61500 17.45559 25941 ft 381 kts 305°
2026-05-05 19:24 42.62552 17.43654 26251 ft 382 kts 305°
2026-05-05 19:24 42.64146 17.40758 26708 ft 383 kts 305°
2026-05-05 19:24 42.65747 17.37847 27160 ft 385 kts 305°
2026-05-05 19:25 42.67351 17.34927 27596 ft 387 kts 305°
2026-05-05 19:25 42.68963 17.31986 28027 ft 388 kts 305°
2026-05-05 19:25 42.70583 17.29031 28448 ft 390 kts 305°
2026-05-05 19:25 42.72207 17.26069 28861 ft 392 kts 305°
2026-05-05 19:26 42.73838 17.23090 29255 ft 394 kts 305°
2026-05-05 19:26 42.75477 17.20093 29633 ft 395 kts 305°
2026-05-05 19:26 42.77122 17.17073 30029 ft 398 kts 305°
2026-05-05 19:26 42.78772 17.14043 30367 ft 399 kts 305°
2026-05-05 19:27 42.80431 17.11001 30692 ft 400 kts 305°
2026-05-05 19:27 42.82092 17.07960 31018 ft 401 kts 305°
2026-05-05 19:27 42.83756 17.04903 31332 ft 402 kts 305°
2026-05-05 19:27 42.85422 17.01840 31688 ft 401 kts 304°
2026-05-05 19:28 42.87079 16.98791 32149 ft 399 kts 304°
2026-05-05 19:28 42.88724 16.95763 32626 ft 396 kts 304°
2026-05-05 19:28 42.90354 16.92758 33090 ft 393 kts 304°
2026-05-05 19:28 42.91971 16.89768 33545 ft 390 kts 304°
2026-05-05 19:29 42.93574 16.86798 33991 ft 388 kts 304°
2026-05-05 19:29 42.95170 16.83840 34373 ft 386 kts 304°
2026-05-05 19:29 42.96760 16.80889 34710 ft 385 kts 304°
2026-05-05 19:29 42.98324 16.77982 35028 ft 384 kts 304°
2026-05-05 19:30 42.99905 16.75038 35300 ft 384 kts 304°
2026-05-05 19:30 43.01482 16.72095 35570 ft 384 kts 304°
2026-05-05 19:30 43.03061 16.69152 35837 ft 384 kts 304°
2026-05-05 19:30 43.04644 16.66206 36019 ft 385 kts 304°
2026-05-05 19:31 43.07813 16.60304 36058 ft 381 kts 304°
2026-05-05 19:31 43.10943 16.54464 36050 ft 380 kts 304°
2026-05-05 19:32 43.14245 16.48793 36041 ft 381 kts 307°
2026-05-05 19:32 43.17692 16.43323 36053 ft 382 kts 308°
2026-05-05 19:33 43.21150 16.37814 36054 ft 381 kts 307°
2026-05-05 19:33 43.24567 16.32258 36063 ft 381 kts 307°
2026-05-05 19:34 43.27964 16.26687 36075 ft 381 kts 307°
2026-05-05 19:35 43.33055 16.18324 36058 ft 380 kts 307°
2026-05-05 19:35 43.36448 16.12740 36070 ft 381 kts 307°
2026-05-05 19:36 43.39841 16.07154 36062 ft 380 kts 307°
2026-05-05 19:36 43.43231 16.01555 36057 ft 381 kts 307°
2026-05-05 19:37 43.46618 15.95961 36052 ft 380 kts 306°
2026-05-05 19:37 43.49999 15.90355 36062 ft 380 kts 306°
2026-05-05 19:38 43.53386 15.84733 36053 ft 381 kts 306°
2026-05-05 19:38 43.56771 15.79111 36054 ft 381 kts 306°
2026-05-05 19:39 43.60151 15.73480 36049 ft 381 kts 306°
2026-05-05 19:39 43.63527 15.67837 36047 ft 381 kts 306°
2026-05-05 19:40 43.66900 15.62190 36049 ft 381 kts 306°
2026-05-05 19:40 43.70272 15.56536 36040 ft 381 kts 306°
2026-05-05 19:41 43.73619 15.50910 36038 ft 381 kts 306°
2026-05-05 19:41 43.76988 15.45243 36036 ft 382 kts 306°
2026-05-05 19:42 43.80358 15.39572 36039 ft 381 kts 306°
2026-05-05 19:42 43.83745 15.33849 36038 ft 382 kts 306°
2026-05-05 19:43 43.87083 15.28188 36044 ft 382 kts 305°
2026-05-05 19:43 43.90445 15.22481 36039 ft 382 kts 305°
2026-05-05 19:44 43.93806 15.16769 36036 ft 382 kts 305°
2026-05-05 19:44 43.97265 15.11140 36036 ft 383 kts 307°
2026-05-05 19:45 44.00822 15.05600 36049 ft 384 kts 308°
2026-05-05 19:45 44.04378 15.00044 36045 ft 384 kts 307°
2026-05-05 19:46 44.07900 14.94464 36043 ft 384 kts 307°
2026-05-05 19:46 44.11413 14.88850 36033 ft 384 kts 307°
2026-05-05 19:47 44.14924 14.83238 36030 ft 385 kts 307°
2026-05-05 19:47 44.18445 14.77623 36023 ft 384 kts 307°
2026-05-05 19:48 44.21940 14.72039 36023 ft 385 kts 307°
2026-05-05 19:48 44.25444 14.66405 36033 ft 384 kts 307°
2026-05-05 19:49 44.28945 14.60767 36028 ft 384 kts 307°
2026-05-05 19:49 44.32445 14.55123 36027 ft 384 kts 307°
2026-05-05 19:50 44.35939 14.49473 36019 ft 384 kts 307°
2026-05-05 19:50 44.39432 14.43825 36019 ft 384 kts 307°
2026-05-05 19:51 44.42924 14.38179 36018 ft 384 kts 307°
2026-05-05 19:51 44.46414 14.32512 36012 ft 385 kts 306°
2026-05-05 19:52 44.49906 14.26819 36028 ft 385 kts 306°
2026-05-05 19:52 44.53393 14.21119 36021 ft 385 kts 306°
2026-05-05 19:53 44.56857 14.15455 36019 ft 385 kts 306°
2026-05-05 19:53 44.60364 14.09715 36021 ft 385 kts 306°
2026-05-05 19:54 44.63832 14.04035 36019 ft 385 kts 306°
2026-05-05 19:54 44.67323 13.98302 36017 ft 386 kts 306°
2026-05-05 19:55 44.70812 13.92557 36014 ft 386 kts 306°
2026-05-05 19:55 44.74297 13.86791 36024 ft 387 kts 306°
2026-05-05 19:56 44.77778 13.81016 36024 ft 387 kts 306°
2026-05-05 19:56 44.81261 13.75235 36028 ft 387 kts 305°
2026-05-05 19:57 44.84752 13.69442 36021 ft 388 kts 305°
2026-05-05 19:57 44.88244 13.63643 36015 ft 388 kts 305°
2026-05-05 19:58 44.91740 13.57828 36013 ft 388 kts 305°
2026-05-05 19:58 44.95230 13.51998 36006 ft 388 kts 305°
2026-05-05 19:59 44.97278 13.48563 36003 ft 388 kts 305°
2026-05-05 19:59 45.00661 13.42885 36007 ft 389 kts 304°
2026-05-05 20:00 45.04149 13.37021 35992 ft 390 kts 304°
2026-05-05 20:00 45.07055 13.32130 35991 ft 391 kts 304°
2026-05-05 20:01 45.11138 13.25240 35993 ft 391 kts 304°
2026-05-05 20:01 45.14632 13.19328 35995 ft 391 kts 304°
2026-05-05 20:02 45.18113 13.13443 36002 ft 392 kts 304°
2026-05-05 20:02 45.21609 13.07507 35990 ft 392 kts 304°
2026-05-05 20:03 45.25108 13.01548 35986 ft 393 kts 304°
2026-05-05 20:03 45.28173 12.95220 35980 ft 388 kts 296°
2026-05-05 20:04 45.30530 12.89804 35983 ft 387 kts 296°
2026-05-05 20:04 45.33358 12.83284 36000 ft 388 kts 296°
2026-05-05 20:05 45.36196 12.76731 35986 ft 389 kts 296°
2026-05-05 20:05 45.39044 12.70158 35983 ft 390 kts 296°
2026-05-05 20:06 45.41898 12.63568 35987 ft 390 kts 296°
2026-05-05 20:06 45.44739 12.56978 35987 ft 390 kts 296°
2026-05-05 20:07 45.47555 12.50419 36007 ft 391 kts 295°
2026-05-05 20:07 45.50393 12.43800 36002 ft 392 kts 295°
2026-05-05 20:08 45.53241 12.37146 35999 ft 392 kts 295°
2026-05-05 20:08 45.56079 12.30491 35987 ft 393 kts 295°
2026-05-05 20:09 45.58914 12.23825 35991 ft 393 kts 295°
2026-05-05 20:09 45.61753 12.17142 36018 ft 393 kts 295°
2026-05-05 20:10 45.64576 12.10472 36001 ft 394 kts 295°
2026-05-05 20:10 45.67411 12.03760 35995 ft 394 kts 295°
2026-05-05 20:11 45.70244 11.97052 35997 ft 394 kts 295°
2026-05-05 20:11 45.73068 11.90332 35998 ft 394 kts 295°
2026-05-05 20:12 45.75886 11.83603 36031 ft 394 kts 294°
2026-05-05 20:12 45.78711 11.76844 36012 ft 395 kts 294°
2026-05-05 20:13 45.81534 11.70076 36012 ft 396 kts 294°
2026-05-05 20:13 45.84357 11.63315 36010 ft 395 kts 294°
2026-05-05 20:14 45.87171 11.56546 36008 ft 396 kts 294°
2026-05-05 20:14 45.89986 11.49754 36005 ft 396 kts 294°
2026-05-05 20:15 45.92778 11.42997 35998 ft 396 kts 294°
2026-05-05 20:15 45.95609 11.36141 36000 ft 396 kts 294°
2026-05-05 20:16 45.98421 11.29321 36003 ft 397 kts 294°
2026-05-05 20:16 46.01205 11.22533 36012 ft 396 kts 294°
2026-05-05 20:17 46.03999 11.15699 36045 ft 397 kts 294°
2026-05-05 20:17 46.06777 11.08813 36021 ft 397 kts 293°
2026-05-05 20:18 46.09534 11.01896 36021 ft 399 kts 293°
2026-05-05 20:18 46.12294 10.94951 36021 ft 399 kts 293°
2026-05-05 20:19 46.15057 10.88003 36016 ft 399 kts 293°
2026-05-05 20:19 46.17822 10.81046 36024 ft 400 kts 293°
2026-05-05 20:20 46.20593 10.74077 36011 ft 400 kts 293°
2026-05-05 20:20 46.23353 10.67099 35998 ft 400 kts 292°
2026-05-05 20:21 46.26105 10.60104 35988 ft 400 kts 292°
2026-05-05 20:21 46.28860 10.53091 35981 ft 401 kts 292°
2026-05-05 20:22 46.31615 10.46072 35986 ft 401 kts 292°
2026-05-05 20:22 46.34349 10.39074 35991 ft 402 kts 292°
2026-05-05 20:23 46.37101 10.32010 35989 ft 402 kts 292°
2026-05-05 20:23 46.39852 10.24930 35987 ft 403 kts 292°
2026-05-05 20:24 46.42611 10.17839 35987 ft 403 kts 292°
2026-05-05 20:24 46.45360 10.10750 35997 ft 404 kts 292°
2026-05-05 20:25 46.48231 10.03777 36008 ft 410 kts 300°
2026-05-05 20:25 46.52016 9.97475 35996 ft 415 kts 304°
2026-05-05 20:26 46.55846 9.91186 36005 ft 416 kts 304°
2026-05-05 20:26 46.59681 9.84838 35995 ft 417 kts 303°
2026-05-05 20:27 46.63513 9.78495 35987 ft 417 kts 304°
2026-05-05 20:27 46.67354 9.72147 35997 ft 418 kts 304°
2026-05-05 20:28 46.71190 9.65775 35978 ft 418 kts 304°
2026-05-05 20:28 46.74997 9.59434 35947 ft 418 kts 304°
2026-05-05 20:29 46.78824 9.53043 35949 ft 419 kts 304°
2026-05-05 20:29 46.82652 9.46636 35936 ft 419 kts 304°
2026-05-05 20:30 46.86482 9.40215 35951 ft 420 kts 305°
2026-05-05 20:30 46.90321 9.33778 35932 ft 420 kts 304°
2026-05-05 20:31 46.94168 9.27299 35924 ft 422 kts 304°
2026-05-05 20:31 46.98013 9.20800 35924 ft 422 kts 304°
2026-05-05 20:32 47.01855 9.14296 35921 ft 422 kts 304°
2026-05-05 20:32 47.05701 9.07766 35921 ft 423 kts 304°
2026-05-05 20:33 47.09507 9.01289 35924 ft 423 kts 305°
2026-05-05 20:33 47.13320 8.94768 35911 ft 423 kts 305°
2026-05-05 20:34 47.16461 8.87625 35914 ft 411 kts 287°
2026-05-05 20:34 47.18462 8.79824 35913 ft 409 kts 285°
2026-05-05 20:35 47.20388 8.72295 35916 ft 410 kts 285°
2026-05-05 20:35 47.21619 8.67486 35941 ft 410 kts 285°
2026-05-05 20:36 47.22857 8.62607 35925 ft 411 kts 285°
2026-05-05 20:36 47.24847 8.54700 35914 ft 412 kts 285°
2026-05-05 20:37 47.26842 8.46772 35910 ft 413 kts 285°
2026-05-05 20:37 47.28828 8.38911 35921 ft 414 kts 285°
2026-05-05 20:38 47.30827 8.30948 35918 ft 415 kts 285°
2026-05-05 20:38 47.32806 8.22994 35934 ft 416 kts 285°
2026-05-05 20:39 47.33976 8.18262 35929 ft 417 kts 285°
2026-05-05 20:39 47.35965 8.10223 35922 ft 417 kts 285°
2026-05-05 20:40 47.37947 8.02175 35927 ft 418 kts 285°
2026-05-05 20:40 47.39932 7.94114 35916 ft 418 kts 285°
2026-05-05 20:41 47.41924 7.86037 35916 ft 418 kts 285°
2026-05-05 20:41 47.43896 7.77962 35910 ft 418 kts 285°
2026-05-05 20:42 47.45721 7.70423 35916 ft 418 kts 285°